www.pogodaiklimat.ru

Погода и климат >> Архив погоды >> Гонконг >> Cheung Chau


ПОГОДА Cheung Chau

  • Прогноз погоды Cheung Chau
  • Монитор погоды Cheung Chau

АРХИВ ПОГОДЫ Cheung Chau

Время (UTC), дата Ветер
(напр.,м/с)
 
Видим.   Явления Облачность Т
(С)
Тd
(С)
f
(%)
Тe
(С)
Тes
(С)
Комфортность P
(гПа)
Po
(гПа)
Тmin
(С)
Tmax
(С)
R
(мм)
R24
(мм)
S
(см)
00 13.09 В 2 н/о н/о +28.2 +27.0 93 +44 +44 опасность
перегрева
1009.6 1000.6
03 13.09 В 6 н/о н/о +32.0 +28.2 80 +53 +53 опасность
перегрева
1009.5 1000.6
06 13.09 ЮВ 7 н/о н/о +31.4 +26.6 76 +48 +48 опасность
перегрева
1007.5 998.6
09 13.09 ЮВ 4 н/о н/о +29.9 +26.0 80 +45 +45 опасность
перегрева
1007.1 998.1
12 13.09 В 5 н/о н/о +26.6 +25.6 94 +39 +39 очень
душно
1008.2 999.1
15 13.09 В 4 н/о н/о +26.1 +25.5 97 +38 +38 очень
душно
1009.3 1000.2
18 13.09 В 1 н/о н/о +26.4 +25.7 96 +39 +39 очень
душно
1008.3 999.3
21 13.09 штиль 0 н/о н/о +26.4 +25.0 92 +38 +38 очень
душно
1008.2 999.1
00 14.09 В 1 н/о н/о +28.3 +26.8 92 +44 +44 опасность
перегрева
1009.2 1000.3
03 14.09 В 2 н/о н/о +31.1 +28.1 84 +51 +51 опасность
перегрева
1009.3 1000.5
06 14.09 ЮВ 4 н/о н/о +32.8 +27.8 75 +53 +53 опасность
перегрева
1007.6 998.7
09 14.09 ЮВ 5 н/о н/о +29.0 +26.1 84 +44 +44 опасность
перегрева
1007.2 998.2
12 14.09 В 2 н/о н/о +27.0 +26.0 94 +40 +40 очень
душно
1008.8 999.7
15 14.09 В 4 н/о н/о +26.8 +26.0 95 +40 +40 очень
душно
1009.6 1000.5
18 14.09 СВ 3 н/о н/о +27.0 +25.7 93 +40 +40 очень
душно
1008.6 999.5
21 14.09 СВ 3 н/о н/о +25.9 +24.6 93 +37 +37 очень
душно
1007.8 998.8
00 15.09 В 4 н/о н/о +27.0 +26.0 94 +40 +40 очень
душно
1009.7 1000.6
03 15.09 В 3 н/о н/о +26.9 +25.5 92 +39 +39 очень
душно
1010.1 1001.0
06 15.09 ЮВ 3 н/о н/о +32.6 +27.3 74 +51 +51 опасность
перегрева
1007.3 998.5
09 15.09 ЮВ 3 н/о н/о +29.6 +25.8 80 +44 +44 опасность
перегрева
1006.5 997.5
12 15.09 Ю 2 н/о н/о +27.1 +24.2 84 +38 +38 очень
душно
1007.7 998.6
15 15.09 Ю 1 н/о н/о +26.7 +24.9 90 +38 +38 очень
душно
1008.5 999.4
18 15.09 ЮВ 1 н/о н/о +26.7 +25.0 90 +38 +38 очень
душно
1007.8 998.8
21 15.09 н/о н/о +25.3 +24.9 98 1007.8 998.7
00 16.09 С 3 н/о н/о +27.1 +25.3 90 +39 +39 очень
душно
1009.5 1000.4
03 16.09 СВ 2 н/о н/о +30.8 +26.7 79 +48 +48 опасность
перегрева
1008.7 999.9
06 16.09 В 8 н/о н/о +31.6 +25.6 71 +47 +47 опасность
перегрева
1006.6 997.7
09 16.09 В 6 н/о н/о +29.1 +25.5 81 +43 +43 опасность
перегрева
1006.0 997.1
12 16.09 В 3 н/о н/о +26.4 +25.0 92 +38 +38 очень
душно
1007.3 998.3
15 16.09 В 2 н/о н/о +26.6 +25.2 92 +38 +38 очень
душно
1008.5 999.4
18 16.09 В 9 н/о н/о +27.0 +25.9 94 +40 +40 очень
душно
1007.7 998.6
21 16.09 СВ 6 н/о н/о +26.6 +23.3 82 +36 +36 очень
душно
1008.3 999.2
00 17.09 В 4 н/о н/о +27.7 +25.6 88 +41 +41 опасность
перегрева
1009.8 1000.9
03 17.09 В 5 н/о н/о +30.3 +26.9 82 +47 +47 опасность
перегрева
1010.5 1001.5
06 17.09 В 8 н/о н/о +31.2 +26.7 77 +48 +48 опасность
перегрева
1008.1 999.2
09 17.09 З 4 н/о н/о +25.7 +25.6 99 +37 +37 очень
душно
1008.5 999.4
12 17.09 В 2 н/о н/о +25.6 +25.2 98 +37 +37 очень
душно
1009.7 1000.6
15 17.09 В 4 н/о н/о +25.0 +24.9 99 +35 +35 очень
душно
1010.5 1001.4
18 17.09 СВ 2 н/о н/о +26.0 +25.1 95 +37 +37 очень
душно
1010.1 1001.0
21 17.09 С 3 н/о н/о +25.8 +24.8 94 +37 +37 очень
душно
1010.0 1000.9
00 18.09 С 2 н/о н/о +26.8 +25.7 94 +40 +40 очень
душно
1012.0 1002.9
03 18.09 СВ 3 н/о н/о +29.9 +27.4 86 +48 +48 опасность
перегрева
1011.8 1002.9
06 18.09 ЮВ 6 н/о н/о +31.6 +27.5 79 +51 +51 опасность
перегрева
1009.8 1001.0
09 18.09 ЮВ 4 н/о н/о +28.3 +25.9 87 +42 +42 опасность
перегрева
1010.0 1001.0
12 18.09 В 7 н/о н/о +25.7 +25.4 98 +37 +37 очень
душно
1011.5 1002.4
15 18.09 С 1 н/о н/о +24.1 +24.1 100 +33 +33 очень
душно
1012.5 1003.3
18 18.09 В 3 н/о н/о +24.4 +24.4 100 +34 +34 очень
душно
1011.3 1002.3
21 18.09 СВ 2 н/о н/о +24.6 +24.6 100 +34 +34 очень
душно
1012.1 1002.9
00 19.09 н/о н/о +24.8 +23.0 90 1012.8 1003.6
03 19.09 С 5 н/о н/о +28.7 +23.7 74 +39 +39 очень
душно
1012.3 1003.3
06 19.09 ЮВ 4 н/о н/о +30.7 +25.4 73 +45 +45 опасность
перегрева
1010.1 1001.2
09 19.09 Ю 3 н/о н/о +29.5 +24.5 75 +42 +42 опасность
перегрева
1009.6 1000.6
12 19.09 ЮВ 4 н/о н/о +25.4 +24.5 95 +36 +36 очень
душно
1011.1 1002.0
15 19.09 ЮВ 3 н/о н/о +24.6 +23.7 95 +33 +33 очень
душно
1011.3 1002.2
18 19.09 ЮЗ 1 н/о н/о +25.0 +23.4 91 +34 +34 очень
душно
1010.0 1000.9
21 19.09 СЗ 1 н/о н/о +24.9 +23.6 92 +34 +34 очень
душно
1009.7 1000.6

 

Местоположение метеостанции Cheung Chau (Гонконг): широта 22.20 долгота 114.01 высота над уровнем моря 79 м.

В архиве по умолчанию представлена погода Cheung Chau за последнюю неделю. Архивные данные за месяц целиком и за предыдущие месяцы, начиная с января 2011 года, Вы можете получить, выбрав интересующий диапазон дат из раскрывающегося списка и нажав кнопку "Ввод!".


*Определитесь, кто Вы:
робот инопланетянин человек

Внимание! Время в таблицах - всемирное. Для получения местного времени необходимо прибавить поправку, которая равна 8 ч.

Смотрите также архив погоды в соседних городах и на ближайших метеорологических станциях:

Погода в Гонконге (Гонконг) (17 км)
Погода Sha Tin (Гонконг) (30 км)
Погода Lau Fau Shan (Гонконг) (30 км)
Погода Ta Kwu Ling (Гонконг) (39 км)
Погода в Шэньчжэне (Гуандун, Китай) (40 км)
Погода Макао (Макао) (43 км)
Погода в Гуанчжоу (Гуандун, Китай) (128 км)
Погода на Шанчуан Дао (Гуандун, Китай) (139 км)
Погода в Шаньвэе (Гуандун, Китай) (153 км)
Погода в Гаояо (Гуандун, Китай) (185 км)

Пояснения к столбцам:

Ветер - указаны скорость ветра в м/с - средняя за 10 мин, порывы в срок и между сроками (в фигурных скобках) и направление, откуда дует ветер: С - северный, СВ - северо-восточный, В - восточный, ЮВ - юго-восточный, Ю - южный, ЮЗ - юго-западный, З - западный, СЗ - северо-западный.
Видимость - горизонтальная дальность видимости в метрах или километрах. При видимости от 1 до 10 км при отсутствии осадков обычно наблюдается дымка, при ухудшении видимости до 1 км и менее - туман. В сухую погоду видимость может ухудшаться дымом, пылью или мглою.
Явления - указаны атмосферные явления, наблюдавшиеся в срок или в последний час перед сроком; фигурными скобками обозначены явления, наблюдавшиеся между сроками (за 1-3 часа до срока); квадратными скобками обозначены град или гололедные отложения с указанием их диаметра в мм.
Облачность - указаны через наклонную черту общая и нижняя облачность в баллах и высота нижней границы облаков в метрах; квадратными скобками обозначены формы облаков: Ci - перистые, Cs - перисто-слоистые, Cc - перисто-кучевые, Ac - высококучевые, As - высокослоистые, Sc - слоисто-кучевые, Ns - слоисто-дождевые, Cu - кучевые, Cb - кучево-дождевые. Подробнее классификацию облаков см. в Атласе облаков (PDF).
T - Температура воздуха - температура, измеренная на высоте 2 м над землей.
Td - Температура точки росы - температура, при понижении до которой содержащийся в воздухе водяной пар достигнет насыщения.
f - Относительная влажность воздуха - влажноcть воздуха, измеренная на высоте 2 м над землей.
Te - Эффективная температура - температура, которую ощущает одетый по сезону человек в тени. Характеристика душности погоды. При расчете учитывается влияние влажности воздуха и скорости ветра на теплоощущения человека.
Tes - Эффективная температура на солнце - температура, которую ощущает человек, с поправкой на солнечный нагрев. Характеристика знойности погоды. Зависит от высоты солнца над горизонтом, облачности и скорости ветра. Ночью, в пасмурную погоду, а также при ветре 12 м/с и более поправка равна нулю.
P - Атмосферное давление - приведенное к уровню моря атмосферное давление.
Po - Атмосферное давление - измеренное на уровне метеостанции атмосферное давление.
Tmin - Минимальная температура - минимум температуры воздуха на высоте 2 м над землей.
Tmax - Максимальная температура - максимум температуры воздуха на высоте 2 м над землей.
R - Количество осадков - Количество выпавших осадков за период времени, мм. При наведении курсора мыши на число - период времени, за который выпало указанное количество осадков.
R24 - Количество осадков - Количество выпавших осадков за 24 часа, мм.
S - Снежный покров - Высота снежного покрова, см. При наведении курсора мыши на число - состояние снежного покрова и степень покрытия местности в баллах.